CAPE
465 619 712 782 837 545 259 560 261 34 5 10 6 3 2 4 0 0 0 0 0 0 0 0 0 0 0 0 0 0 2 10 1 17 59 51 111 115 46 35 14 0 0
695 698 424 309 312 179 56 15 13 17 29 11 1 0 0 0 0 0 0 0 0 0 0 0 0 0 0 0 14 39 72 77 13 35 73 82 145 83 74 81 45 27 20
174 293 444 227 59 14 7 2 1 0 0 0 0 0 0 0 0 2 2 10 9 10 38 59 59 65 82 92 102 99 77 69 82 92 103 155 59 107 145 134 125 58 55
285 348 35 11 17 8 2 0 0 0 0 0 0 0 0 0 0 0 9 19 10 7 29 47 27 29 45 84 88 93 80 82 99 90 97 98 104 76 102 80 40 70 48
256 135 138 41 7 2 4 0 1 0 0 1 0 0 0 0 0 0 0 2 9 24 27 13 1 0 0 0 1 2 1 4 14 15 23 27 30 31 56 43 54 68 60
17 66 83 25 1 0 0 0 0 0 0 0 0 0 0 0 0 0 0 0 0 3 7 18 17 12 0 0 0 0 0 0 12 8 9 26 41 43 49 34 47 42 39
36 26 43 23 2 0 0 0 0 0 0 0 0 0 0 0 0 0 0 0 0 4 11 19 16 6 5 26 8 2 1 0 0 4 21 25 33 48 53 51 71 64 56
1 0 0 0 0 0 0 6 2 0 0 0 0 0 0 0 0 0 0 0 0 0 2 9 13 3 0 2 17 18 19 21 9 1 8 15 12 6 22 44 55 81 87
2 1 7 32 45 99 75 6 0 0 0 0 0 0 0 0 0 0 0 2 5 8 0 0 4 1 0 0 23 21 17 11 9 0 0 0 0 0 0 42 47 71 58
2 9 49 82 93 110 90 0 0 0 0 0 0 0 0 0 0 0 0 4 2 8 11 8 0 0 0 0 6 15 5 2 30 30 48 49 39 66 3 50 85 89 106
11 31 68 110 169 153 93 4 0 0 0 0 0 0 0 0 0 0 0 4 6 13 10 13 0 0 0 0 0 1 0 0 20 43 38 59 39 45 52 46 82 119 85
17 41 59 77 48 100 79 12 0 0 0 0 0 0 0 0 0 0 0 0 0 27 27 24 7 0 0 0 0 0 0 0 18 31 49 53 46 37 8 11 10 13 33
20 42 65 56 70 97 67 30 2 0 0 0 0 1 1 1 10 0 0 0 0 3 12 0 0 0 0 0 0 0 0 25 34 36 43 12 40 13 6 9 28 61 29
93 68 58 69 88 77 39 29 8 31 20 0 6 12 11 27 17 26 15 5 0 3 4 3 0 0 0 0 11 11 22 36 36 46 33 68 44 47 28 46 47 11 14
56 80 63 37 54 69 84 48 40 74 15 32 39 35 22 25 0 0 0 7 5 1 6 36 17 33 29 22 22 25 14 51 39 15 47 37 68 45 57 52 31 5 15
234 159 1 9 9 51 67 41 0 0 0 0 0 0 2 0 0 0 0 0 0 0 28 35 26 34 30 17 21 23 18 52 21 21 27 59 55 24 48 100 69 8 73
149 0 0 0 16 38 39 52 76 0 0 0 0 0 0 0 0 0 0 0 0 0 6 33 18 24 29 21 22 22 21 48 35 55 13 62 43 53 45 72 68 29 13
64 0 8 1 8 45 35 0 31 44 41 2 0 0 0 0 0 0 0 1 18 4 18 12 9 17 24 20 20 21 11 51 76 70 58 35 45 55 64 76 53 46 15
53 42 53 66 54 16 39 53 28 26 35 23 13 0 0 0 0 0 0 17 17 8 5 3 2 13 20 17 18 21 16 46 55 66 76 63 9 2 43 93 70 3 1
41 17 19 36 36 42 30 29 27 27 18 11 8 6 4 11 11 14 11 7 10 4 4 9 9 12 13 13 19 18 23 39 70 60 76 68 33 0 12 48 101 54 26
43 43 33 28 11 24 28 16 8 3 4 3 1 0 0 0 3 7 9 9 8 8 8 8 5 9 8 16 20 20 27 25 42 23 55 69 66 16 0 1 139 54 55
46 42 29 30 16 8 3 0 0 0 0 0 0 0 0 1 1 1 3 4 4 4 5 5 5 7 12 13 12 14 18 28 25 1 4 35 45 61 55 26 21 54 30
7 5 2 2 0 0 0 0 0 0 0 0 0 0 0 0 1 1 3 4 5 8 6 3 4 6 6 9 8 0 0 0 0 0 7 36 62 82 99 55 93 34 42
3 0 0 0 0 0 0 0 0 0 0 0 0 0 0 0 1 1 3 3 5 4 3 3 2 0 3 3 5 0 0 0 0 0 0 0 4 64 82 81 112 27 56
13 4 1 0 0 0 0 0 0 0 0 0 0 0 0 0 0 0 1 0 1 3 2 1 1 0 0 0 0 0 0 0 0 0 0 0 31 54 69 72 88 101 93
13 9 5 2 0 0 0 0 0 0 0 0 0 0 0 0 0 0 0 0 0 0 0 0 0 0 0 0 0 0 0 0 0 0 0 0 24 52 44 55 70 75 74
CIN
-320 -228 -151 -106 -78 -109 -173 -94 -179 -79 0 0 0 0 0 0 0 0 0 0 0 0 0 0 0 0 0 0 0 0 -7 -9 -6 -8 -7 -2 -4 -2 -2 -1 -11 0 0
-124 -94 -156 -175 -137 -172 -237 -334 -1 0 -228 0 0 0 0 0 0 0 0 0 0 0 0 0 0 0 0 0 -30 -16 -14 -7 -14 0 0 -1 -3 0 0 0 0 0 0
-176 -115 -73 -143 -264 -273 0 0 0 0 0 0 0 0 0 0 0 0 0 -1 0 0 0 0 0 0 0 0 0 0 0 0 0 0 0 -1 0 -1 -1 -1 -1 0 0
-59 -53 -204 -163 -264 0 0 0 0 0 0 0 0 0 0 0 0 0 -2 -1 -4 -2 0 0 0 0 0 0 0 0 0 0 -1 -1 -2 -1 0 -3 -1 0 -2 -4 -3
-59 -88 -81 -135 0 0 0 0 0 0 0 0 0 0 0 0 0 0 0 0 0 0 0 0 0 0 0 0 0 0 0 0 0 0 0 0 0 0 0 0 -1 0 -2
-124 -57 -66 -51 0 0 0 0 0 0 0 0 0 0 0 0 0 0 0 0 0 0 0 0 0 0 0 0 0 0 0 0 0 0 0 0 0 0 0 -1 0 0 0
-15 -31 -61 -14 0 0 0 0 0 0 0 0 0 0 0 0 0 0 0 0 0 0 0 0 0 0 0 0 -58 -19 -12 -4 0 0 0 0 0 0 0 0 0 0 0
0 -3 -6 0 0 0 0 -58 -16 0 0 0 0 0 0 0 0 0 0 0 0 0 0 0 0 0 0 0 0 0 0 0 0 0 0 0 0 0 0 0 0 0 0
-2 -15 -13 -4 -10 0 -1 -9 0 0 0 0 0 0 0 0 0 0 0 0 0 0 0 0 0 0 0 0 0 0 0 0 -2 0 0 0 0 0 0 0 0 0 0
-24 -35 -24 -2 0 0 0 0 0 0 0 0 0 0 0 0 0 0 0 0 0 0 0 -4 0 0 0 0 0 0 0 0 0 0 0 -1 -6 -2 -1 -6 0 0 0
-51 -36 -2 0 0 0 0 -2 0 0 0 0 0 0 0 0 0 0 0 0 0 0 0 0 0 0 0 0 0 0 0 0 -2 0 -1 0 0 0 0 0 0 0 0
-45 -32 -9 -3 0 0 0 -10 0 0 0 0 0 0 0 0 0 0 0 0 0 0 0 0 0 0 0 0 0 0 0 0 0 0 0 0 0 0 0 0 0 0 0
-61 -20 -1 -1 0 0 0 0 0 0 0 0 0 0 0 0 0 0 0 0 0 -3 0 0 0 0 0 0 0 0 0 0 0 0 0 -4 0 0 0 0 0 0 -1
-1 -4 0 0 0 0 0 0 0 0 0 0 0 0 0 0 0 0 -1 0 0 0 0 0 -6 0 0 -6 -1 -7 0 0 0 0 0 0 0 0 -3 0 0 0 0
-18 -14 -9 -6 0 0 0 -7 0 -3 -2 -7 -1 0 0 -1 0 0 0 -1 -1 -3 0 0 0 0 0 0 0 0 0 0 0 -1 0 0 0 0 0 0 -2 0 0
-8 0 -22 -16 -14 0 0 -7 0 0 0 0 0 0 0 0 0 0 0 0 0 0 0 0 0 0 0 0 0 0 0 -1 -1 -1 0 0 0 0 0 0 0 0 0
-1 -1 0 -1 -17 0 0 0 0 0 0 0 0 0 0 0 0 0 0 0 0 0 -3 0 0 0 0 0 0 0 0 0 0 0 -4 0 0 0 0 0 0 -1 -1
-6 0 -27 -10 -28 0 0 -7 0 0 -1 -7 0 0 0 0 0 0 0 0 -2 -4 0 0 0 0 0 0 0 0 0 0 0 0 0 0 0 0 0 0 0 0 -2
0 0 0 0 -6 -13 -11 0 0 0 0 0 -9 0 0 0 0 0 0 0 0 0 -1 -2 -1 0 0 0 0 0 0 0 -1 0 0 0 -1 -7 0 0 0 -15 0
-2 -29 -22 -6 -1 0 0 0 0 0 0 0 0 0 0 0 -2 0 0 0 0 0 0 0 0 0 0 0 0 0 0 0 0 0 0 0 -1 0 -3 -1 0 0 0
-1 -1 -2 0 -5 0 0 0 0 0 0 0 0 0 0 0 0 0 0 0 0 0 0 0 0 0 0 0 0 0 0 0 0 -1 0 0 0 -10 0 0 0 0 0
0 0 0 0 0 0 0 0 0 0 0 0 0 0 0 0 0 0 0 0 0 0 0 0 0 0 0 0 0 0 0 0 0 -2 -20 0 0 0 -2 -8 -1 0 0
0 0 0 0 0 0 0 0 0 0 0 0 0 0 0 0 0 0 0 0 0 0 0 0 0 0 0 0 0 0 0 0 0 0 -13 0 0 0 0 -6 0 0 0
0 0 0 0 0 0 0 0 0 0 0 0 0 0 0 0 0 0 0 0 0 0 0 0 0 0 0 0 0 0 0 0 0 0 0 0 -1 -1 0 0 0 -2 0
0 0 0 0 0 0 0 0 0 0 0 0 0 0 0 0 0 0 0 0 0 0 0 0 0 0 0 0 0 0 0 0 0 0 0 0 0 0 0 0 0 0 0
0 0 0 0 0 0 0 0 0 0 0 0 0 0 0 0 0 0 0 0 0 0 0 0 0 0 0 0 0 0 0 0 0 0 0 -5 -3 0 0 0 0 0 0
Wind_Speed
9 8 8 8 8 7 6 7 11 12 11 11 11 11 11 13 12 12 11 9 10 9 7 8 7 6 4 4 3 3 3 2 2 3 2 5 4 5 5 5 7 6 7
8 9 9 9 9 10 11 10 9 13 13 13 13 11 13 12 9 9 10 8 7 8 6 6 5 2 2 3 2 1 1 2 2 3 3 2 3 2 4 6 6 8 7
9 10 11 12 12 11 12 12 11 12 13 13 14 13 11 9 12 10 11 9 11 11 9 8 8 7 6 6 6 6 5 4 3 5 5 2 3 4 5 6 6 8 8
9 11 11 11 11 13 12 12 10 11 12 13 11 12 12 10 10 9 10 10 10 10 10 11 12 12 11 9 7 7 6 6 2 5 4 4 4 5 5 7 6 5 7
10 11 10 12 12 12 11 12 11 12 13 12 12 12 13 13 10 10 10 10 10 10 9 11 12 13 16 16 9 9 9 8 8 7 6 4 2 5 8 7 6 6 9
9 9 10 10 11 11 12 12 11 12 12 12 14 14 14 11 12 14 11 10 11 10 9 8 9 9 11 11 9 11 10 9 8 7 8 8 9 10 9 8 11 10 10
10 9 10 10 11 11 12 10 8 9 12 13 13 13 13 12 9 10 9 11 11 10 10 9 9 10 11 9 6 10 9 8 5 8 9 10 11 11 11 11 11 10 11
11 9 7 6 8 10 8 7 10 10 11 10 11 12 12 9 10 8 6 12 11 12 12 11 11 12 13 13 9 9 9 9 10 8 10 10 10 11 11 12 13 13 10
8 7 3 4 6 8 10 10 9 9 10 10 10 11 10 10 11 14 9 8 10 10 11 12 12 11 11 15 9 10 11 11 8 5 9 10 11 10 11 9 10 10 11
7 6 4 3 8 9 9 9 9 8 8 8 10 9 8 8 10 11 14 6 7 5 7 11 11 10 6 9 11 11 12 13 12 10 8 8 6 8 7 6 6 7 9
4 6 7 8 9 8 8 7 7 7 7 7 7 6 6 5 7 9 12 7 7 6 6 6 8 8 7 7 8 11 11 12 12 7 6 10 11 11 9 8 11 9 8
7 6 9 8 6 6 7 7 6 6 6 5 4 4 5 3 3 7 6 5 8 7 6 7 6 4 7 7 9 8 12 14 8 8 8 10 10 9 9 9 11 10 9
5 3 4 6 6 5 6 5 5 4 3 2 1 2 3 3 1 7 5 3 2 6 8 5 3 8 13 6 3 9 13 8 9 8 9 9 10 7 8 8 12 13 8
5 6 4 4 4 3 3 3 2 2 1 2 0 2 3 2 6 8 5 3 7 7 6 5 3 8 9 8 7 4 6 8 8 8 9 9 10 9 8 8 9 9 8
6 4 5 2 1 4 3 5 3 6 8 7 5 4 4 5 6 6 6 8 8 6 8 5 5 7 8 8 7 7 7 7 8 8 10 8 11 10 9 8 7 7 6
6 6 4 2 3 4 5 5 10 9 9 8 8 7 5 9 7 7 6 6 5 5 6 5 5 7 8 8 8 8 7 8 8 8 8 10 8 9 11 10 7 6 9
6 7 5 3 3 3 2 1 5 6 7 7 8 8 8 8 8 4 3 3 4 6 4 5 6 7 8 8 8 7 7 7 8 7 8 10 9 9 10 10 10 7 9
9 8 4 3 4 4 5 1 2 3 3 7 7 6 7 6 6 3 6 7 2 1 3 6 6 6 7 7 7 7 7 7 8 8 7 9 9 9 10 9 8 10 7
7 7 6 2 5 4 3 3 3 3 3 3 7 7 8 6 3 2 6 4 4 5 5 5 6 6 6 6 6 6 6 7 7 8 8 7 9 10 11 10 8 7 7
6 9 7 2 3 3 1 1 3 3 3 3 4 6 7 5 1 3 4 4 5 5 5 6 5 7 6 6 6 7 7 8 8 9 8 8 6 5 10 12 9 8 7
4 5 2 6 1 3 3 3 3 2 3 4 4 6 5 7 5 4 4 4 5 5 4 4 4 5 5 6 6 7 7 7 10 11 11 10 9 4 4 8 10 9 8
3 4 3 3 3 3 3 2 2 3 4 3 4 6 7 2 5 4 4 4 4 2 1 3 5 5 6 7 7 8 9 9 8 9 9 9 9 9 5 5 7 8 6
3 3 4 4 5 4 4 3 3 3 4 4 4 4 4 4 4 4 4 3 3 3 3 4 5 5 6 6 6 6 9 10 11 11 11 11 9 9 8 5 6 5 6
4 4 5 5 4 4 4 4 5 3 3 4 4 4 4 4 4 4 3 3 3 3 4 4 4 6 6 6 6 8 7 8 8 9 11 10 11 11 9 6 5 3 4
5 5 5 5 5 4 5 3 3 3 3 3 3 3 3 2 3 3 3 3 3 3 4 4 5 6 7 8 10 12 10 8 9 9 9 11 12 14 11 9 9 7 5
4 4 4 4 4 3 3 3 3 2 2 2 1 2 2 2 2 2 2 3 3 3 4 4 5 7 7 7 11 10 7 9 10 10 8 8 9 9 11 11 13 7 9
Wind_Direction
52 48 55 48 56 62 62 57 66 73 73 78 75 72 71 73 75 71 63 63 63 57 47 59 50 36 49 52 55 54 46 41 155 202 210 166 202 224 238 257 256 268 256
53 59 61 60 63 68 72 70 92 89 81 79 81 80 80 71 62 73 78 79 86 91 85 75 81 100 93 98 117 77 50 272 306 273 272 261 234 244 274 287 284 302 295
64 71 76 74 68 69 74 70 77 81 79 74 76 73 80 65 77 63 73 68 65 53 46 39 36 24 18 11 1 342 1 355 338 314 311 241 307 314 286 254 245 272 274
73 71 70 79 90 87 84 79 76 81 80 77 77 77 78 79 75 70 64 59 57 57 54 38 40 32 26 9 37 24 4 336 14 338 346 345 286 347 313 320 319 291 316
78 91 91 88 88 83 79 78 81 83 86 88 83 74 66 53 37 57 62 56 55 63 62 73 62 63 54 39 26 23 360 356 347 340 321 292 310 314 300 296 292 292 265
86 83 93 93 91 95 95 91 84 75 76 77 71 66 62 61 21 29 52 61 56 49 44 49 88 43 96 90 84 69 46 14 13 347 337 347 319 328 319 330 306 318 307
86 74 69 74 79 78 84 82 79 79 77 72 70 71 72 73 29 36 41 59 55 52 48 38 39 47 10 19 151 156 138 129 72 329 339 331 322 329 321 308 311 313 297
85 71 61 99 115 108 94 84 82 80 76 74 75 79 84 70 12 358 60 60 62 57 47 51 50 45 27 1 21 15 8 7 5 348 340 331 324 324 311 305 301 286 277
78 85 102 90 107 100 88 86 84 80 75 72 77 78 77 65 11 359 0 62 72 61 71 43 34 45 12 355 6 5 1 6 339 202 247 253 255 253 259 298 309 328 306
85 79 78 102 83 87 88 87 87 85 79 84 81 78 72 76 29 359 359 68 49 72 78 104 69 31 1 0 354 8 355 355 335 340 358 358 333 342 263 279 319 309 302
88 75 90 81 74 80 94 97 95 82 93 94 91 87 76 37 70 33 12 354 11 27 39 39 57 21 351 340 329 10 343 314 318 350 347 347 356 349 346 341 330 315 300
69 54 55 56 55 87 100 107 106 114 113 109 111 149 115 75 41 68 21 5 343 330 14 39 65 357 300 310 342 327 301 299 349 352 357 356 346 352 341 322 310 297 294
58 87 87 82 82 96 112 124 132 144 126 138 135 94 76 42 41 170 188 194 242 299 14 17 320 280 278 252 259 283 288 5 351 356 355 346 342 344 326 319 319 313 288
128 98 107 105 98 92 123 153 138 109 125 187 312 11 11 348 23 11 7 203 187 226 214 189 336 296 284 290 312 347 358 13 339 350 351 348 338 341 342 339 334 337 324
144 157 114 144 99 125 58 30 16 51 18 352 0 331 336 41 39 26 348 347 351 18 309 327 344 340 357 358 359 359 352 5 355 350 333 351 342 349 342 351 356 332 332
190 158 128 135 205 130 144 135 55 47 54 58 50 20 26 63 6 353 360 323 294 306 290 350 3 345 359 354 352 0 349 5 0 337 337 339 351 346 341 332 14 351 340
143 124 147 167 273 85 128 95 154 107 71 83 68 64 51 13 349 339 228 161 51 310 345 353 1 345 348 352 349 355 343 3 333 344 345 330 346 345 334 352 360 9 350
123 136 158 157 208 210 88 69 268 254 178 136 89 68 64 36 31 50 241 246 70 44 346 354 359 345 332 347 342 346 357 332 342 347 356 340 348 342 341 352 7 1 347
159 156 181 131 42 67 136 218 274 41 3 7 138 195 159 192 173 148 290 6 2 -0 6 354 348 330 329 342 342 348 346 342 347 338 355 351 4 345 334 342 2 26 350
84 55 50 130 182 232 175 332 28 6 352 23 27 12 355 246 268 19 17 358 360 9 4 355 357 314 341 350 347 345 355 349 357 340 353 348 7 338 335 331 337 18 12
127 148 149 214 139 43 30 27 28 33 61 36 68 46 314 307 11 29 15 24 9 11 8 338 295 340 358 1 356 357 1 2 348 349 341 350 350 328 308 327 333 34 29
203 196 163 81 83 104 62 65 63 65 48 43 80 112 264 329 44 49 60 47 51 67 35 323 355 11 13 4 3 356 352 356 351 348 337 336 334 331 4 333 341 4 56
95 122 130 108 86 150 161 82 78 68 67 62 57 53 53 48 59 57 62 57 52 41 19 17 354 15 22 360 7 22 357 351 345 332 331 330 328 339 339 357 349 9 10
131 141 129 136 103 111 118 101 109 44 15 76 66 53 49 44 47 69 30 38 31 42 22 14 19 17 2 352 2 23 5 353 326 318 333 319 331 331 342 337 14 309 343
156 144 145 143 167 117 151 127 103 96 82 71 74 67 78 58 56 46 29 28 31 5 29 7 23 5 12 358 13 359 8 332 318 312 309 313 323 335 346 1 350 352 1
185 168 169 165 160 166 157 158 142 150 133 128 122 77 44 31 43 26 22 30 18 25 3 27 25 10 5 18 22 348 329 330 327 317 310 310 326 343 356 357 349 8 5